Date String (YYYY-MM-DD hh:mm:ss) UTC,Instrument flags,Ambient pressure (hPa),Sample flow (lpm),Bypass flow (lpm),Sample temperature (°C),Ambient temperature (°C),ASC tube jacket temperature (°C),LED temperature (°C),Box temperature (°C),Sample RH (%),Span deviation,Mass concentration (μg/m³),Mass concentration (μg/m³),Mass concentration (μg/m³)
DateTimeUTC,F1_M11,P_M11,Q1_M11,Q2_M11,T1_M11,T2_M11,T3_M11,T4_M11,T5_M11,U1_M11,ZSPAN_M11,X0_M11,X2_M11,X1_M11
2022-06-24 08:00:00,,0824.8,5.01,0.00,29.5,28.5,00.0,38.3,31.4,17.9,0000.0,0007.64,0003.69,0003.22
2022-06-24 08:01:00,,0824.7,5.01,0.00,29.5,28.5,00.0,38.3,31.4,17.9,0000.0,0007.81,0003.75,0003.23
2022-06-24 08:02:00,,0824.8,5.01,0.00,29.5,28.6,00.0,38.3,31.4,18.0,0000.0,0007.79,0003.74,0003.22
2022-06-24 08:03:00,,0824.7,5.00,0.00,29.5,28.6,00.0,38.3,31.5,18.0,0000.0,0008.27,0003.72,0003.22
2022-06-24 08:04:00,,0824.7,5.00,0.00,29.6,28.6,00.0,38.3,31.5,17.9,0000.0,0008.53,0003.74,0003.22
2022-06-24 08:05:00,,0824.7,5.00,0.00,29.6,28.7,00.0,38.4,31.5,17.9,0000.0,0008.84,0003.77,0003.23
2022-06-24 08:06:00,,0824.7,5.00,0.00,29.6,28.7,00.0,38.4,31.5,17.9,0000.0,0008.97,0003.77,0003.23
2022-06-24 08:07:00,,0824.6,5.00,0.00,29.6,28.1,00.0,38.3,31.4,17.9,0000.0,0008.67,0003.77,0003.23
2022-06-24 08:08:00,,0824.6,4.99,0.00,29.5,27.5,00.0,38.3,31.2,18.0,0000.0,0008.59,0003.80,0003.22
2022-06-24 08:09:00,,0824.6,5.01,0.00,29.5,27.3,00.0,38.2,31.2,18.0,0000.0,0008.94,0003.83,0003.22
2022-06-24 08:10:00,,0824.6,4.99,0.00,29.4,27.3,00.0,38.2,31.1,17.9,0000.0,0009.03,0003.86,0003.23
2022-06-24 08:11:00,,0824.5,5.01,0.00,29.4,27.4,00.0,38.2,31.1,18.0,0000.0,0008.95,0003.84,0003.22
2022-06-24 08:12:00,,0824.6,4.99,0.00,29.4,27.5,00.0,38.2,31.1,18.0,0000.0,0009.87,0003.83,0003.22
2022-06-24 08:13:00,,0824.8,5.00,0.00,29.4,27.7,00.0,38.2,31.1,18.0,0000.0,0010.57,0003.79,0003.21
2022-06-24 08:14:00,,0824.6,4.99,0.00,29.3,27.8,00.0,38.2,31.2,18.0,0000.0,0010.10,0003.79,0003.20
2022-06-24 08:15:00,,0824.6,5.01,0.00,29.4,27.9,00.0,38.2,31.2,18.1,0000.0,0009.85,0003.77,0003.19
2022-06-24 08:16:00,,0824.5,5.00,0.00,29.4,28.0,00.0,38.2,31.2,18.1,0000.0,0009.24,0003.70,0003.18
2022-06-24 08:17:00,,0824.7,5.00,0.00,29.4,28.1,00.0,38.2,31.3,18.1,0000.0,0009.06,0003.67,0003.17
2022-06-24 08:18:00,,0824.7,5.00,0.00,29.4,28.2,00.0,38.2,31.3,18.1,0000.0,0009.07,0003.66,0003.16
2022-06-24 08:19:00,,0824.7,5.00,0.00,29.4,28.2,00.0,38.2,31.3,18.1,0000.0,0008.91,0003.65,0003.16
2022-06-24 08:20:00,,0824.8,5.01,0.00,29.4,28.3,00.0,38.2,31.3,18.1,0000.0,0008.47,0003.64,0003.17
2022-06-24 08:21:00,,0824.5,5.00,0.00,29.5,28.4,00.0,38.2,31.4,18.0,0000.0,0008.38,0003.59,0003.18
2022-06-24 08:22:00,,0824.6,5.01,0.00,29.5,28.4,00.0,38.3,31.4,17.8,0000.0,0008.57,0003.63,0003.19
2022-06-24 08:23:00,,0824.7,5.01,0.00,29.5,28.5,00.0,38.3,31.4,17.8,0000.0,0007.88,0003.63,0003.19
2022-06-24 08:24:00,,0824.6,5.00,0.00,29.5,28.5,00.0,38.3,31.5,17.8,0000.0,0006.76,0003.67,0003.21
2022-06-24 08:25:00,,0824.6,4.99,0.00,29.5,28.6,00.0,38.3,31.5,17.8,0000.0,0006.31,0003.70,0003.21
2022-06-24 08:26:00,,0824.6,5.01,0.00,29.6,28.6,00.0,38.3,31.5,17.8,0000.0,0006.64,0003.72,0003.23
2022-06-24 08:27:00,,0824.6,5.00,0.00,29.6,28.6,00.0,38.3,31.5,17.7,0000.0,0007.52,0003.76,0003.25
2022-06-24 08:28:00,,0824.6,5.00,0.00,29.6,28.7,00.0,38.4,31.5,17.3,0000.0,0007.83,0003.80,0003.27
2022-06-24 08:29:00,,0824.6,5.00,0.00,29.6,28.7,00.0,38.4,31.6,17.3,0000.0,0007.86,0003.83,0003.29
2022-06-24 08:30:00,,0824.6,5.00,0.00,29.7,28.5,00.0,38.4,31.5,17.2,0000.0,0008.67,0003.87,0003.32
2022-06-24 08:31:00,,0824.7,5.00,0.00,29.6,27.7,00.0,38.3,31.3,17.4,0000.0,0009.32,0003.91,0003.33
2022-06-24 08:32:00,,0824.8,5.01,0.00,29.5,27.4,00.0,38.3,31.2,17.5,0000.0,0009.67,0003.94,0003.33
2022-06-24 08:33:00,,0824.7,5.01,0.00,29.5,27.3,00.0,38.3,31.1,17.5,0000.0,0009.68,0003.97,0003.34
2022-06-24 08:34:00,,0825.0,5.01,0.00,29.4,27.3,00.0,38.2,31.1,17.5,0000.0,0009.67,0003.97,0003.36
2022-06-24 08:35:00,,0824.8,5.00,0.00,29.4,27.5,00.0,38.2,31.1,17.7,0000.0,0009.70,0003.98,0003.38
2022-06-24 08:36:00,,0824.5,5.00,0.00,29.4,27.6,00.0,38.2,31.2,17.6,0000.0,0009.79,0003.99,0003.40
2022-06-24 08:37:00,,0824.6,5.00,0.00,29.4,27.7,00.0,38.2,31.2,17.6,0000.0,0009.61,0003.99,0003.40
2022-06-24 08:38:00,,0824.6,5.00,0.00,29.4,27.8,00.0,38.2,31.2,17.7,0000.0,0008.93,0003.95,0003.40
2022-06-24 08:39:00,,0824.5,5.00,0.00,29.4,28.0,00.0,38.2,31.2,17.7,0000.0,0008.68,0003.90,0003.38
2022-06-24 08:40:00,,0824.7,5.00,0.00,29.4,28.1,00.0,38.2,31.3,17.6,0000.0,0008.89,0003.86,0003.37
2022-06-24 08:41:00,,0824.6,5.00,0.00,29.4,28.1,00.0,38.2,31.3,17.6,0000.0,0008.30,0003.83,0003.35
2022-06-24 08:42:00,,0824.6,5.00,0.00,29.4,28.2,00.0,38.2,31.3,17.5,0000.0,0008.38,0003.81,0003.34
2022-06-24 08:43:00,,0824.6,5.00,0.00,29.4,28.3,00.0,38.2,31.3,17.4,0000.0,0008.10,0003.82,0003.33
2022-06-24 08:44:00,,0824.6,5.01,0.00,29.5,28.4,00.0,38.3,31.4,17.3,0000.0,0008.10,0003.83,0003.33
2022-06-24 08:45:00,,0824.6,5.00,0.00,29.5,28.4,00.0,38.3,31.4,17.1,0000.0,0008.13,0003.85,0003.33
2022-06-24 08:46:00,,0824.6,5.00,0.00,29.5,28.5,00.0,38.3,31.4,16.8,0000.0,0008.24,0003.88,0003.35
2022-06-24 08:47:00,,0824.6,5.00,0.00,29.5,28.5,00.0,38.3,31.5,16.7,0000.0,0008.26,0003.92,0003.40
2022-06-24 08:48:00,,0824.6,5.00,0.00,29.6,28.6,00.0,38.3,31.5,17.0,0000.0,0009.14,0003.98,0003.43
2022-06-24 08:49:00,,0824.6,4.99,0.00,29.6,28.6,00.0,38.3,31.5,17.2,0000.0,0009.43,0004.04,0003.45
2022-06-24 08:50:00,,0824.6,5.00,0.00,29.6,28.6,00.0,38.3,31.5,17.3,0000.0,0009.59,0004.09,0003.45
2022-06-24 08:51:00,,0824.6,5.00,0.00,29.6,28.7,00.0,38.4,31.5,17.3,0000.0,0009.44,0004.13,0003.46
2022-06-24 08:52:00,,0824.6,5.00,0.00,29.6,28.7,00.0,38.4,31.6,17.3,0000.0,0009.22,0004.12,0003.46
2022-06-24 08:53:00,,0824.6,5.01,0.00,29.7,28.7,00.0,38.4,31.6,17.3,0000.0,0008.35,0004.07,0003.46
2022-06-24 08:54:00,,0824.6,5.00,0.00,29.7,28.5,00.0,38.4,31.6,17.1,0000.0,0008.26,0004.04,0003.46
2022-06-24 08:55:00,,0824.5,5.00,0.00,29.6,27.6,00.0,38.3,31.3,17.0,0000.0,0008.28,0004.03,0003.48
2022-06-24 08:56:00,,0824.6,5.01,0.00,29.6,27.3,00.0,38.3,31.2,16.8,0000.0,0008.97,0004.04,0003.50
2022-06-24 08:57:00,,0824.5,4.99,0.00,29.5,27.3,00.0,38.3,31.2,16.8,0000.0,0008.92,0004.06,0003.52
2022-06-24 08:58:00,,0824.7,5.00,0.00,29.4,27.3,00.0,38.3,31.1,16.8,0000.0,0008.86,0004.05,0003.53
2022-06-24 08:59:00,,0824.6,4.98,0.00,29.4,27.4,00.0,38.2,31.1,17.0,0000.0,0008.46,0004.05,0003.53
